Location: Seven Kings
(51.5667°N, 0.1000°E)
Time: 14:07:18
(UTC+00:00)

Cosmos 2219 - Pass Details

Date: 29 October 2020
Orbit: 832 x 862 km, 71.1° (Epoch: 28 November)

Event Time Altitude Azimuth Distance (km) Brightness Sun altitude
Rises 18:02:13 0° 327° (NNW) 3,448 6.8 -13.7°
Reaches altitude 10° 18:04:44 10° 322° (NW) 2,509 6.1 -14.1°
Maximum altitude 18:10:18 52° 249° (WSW) 1,071 4.1 -14.9°
Drops below altitude 10° 18:15:50 10° 174° (S) 2,494 5.6 -15.8°
Sets 18:18:20 0° 170° (S) 3,424 6.3 -16.2°
